Showing default

GAOFEN 3, 41727

Orbit data source: Space-Track

GAOFEN 3, 41727 is a payload satellite owned by GWHYZ (CN) in SSO that was launched on Tue, 09 Aug 2016 UTC via a CHANG ZHENG 4C launch vehicle from the Taiyaun Space Center, China (TSC). Payloads include a variety of satellites, spacecraft, and rockets equipped with specific instruments for various scientific and technological missions. These include communications satellites like Starlink; space stations such as the ISS; scientific satellites like the Hubble; Earth observation satellites from companies like Planet Labs, Umbra, and HawkEye 360; GPS; miniature CubeSats for education and research; and military/defense satellites.

Loading next visibility...
GAOFEN 3 details
Identifier
41727, 2016-049A
Orbit
SSO
Last TLE update6 hours ago
Origin
Flag of CNGWHYZ (CN / PRC)
ManufacturerCAST
MissionOperational Civil Radar Imaging
Bus & MotorCS-L3000B, Unknown motor
Mass~2,779 kg wet, ~2,500 kg dry
Launch date (UTC)
2016-08-09 (8 years ago)
Launch vehicle
CHANG ZHENG 4C
Launch site
Taiyaun Space Center, China (TSC)
Object type
Payload
Rocket body
Debris
Shape & HBRBox + 3 Pan, 8 m
Radar Cross Section10.846 m², Large (>1 m²)

Expand to show TLE details & history

TLE from 6 hours ago
0 GAOFEN 3
1 41727U 16049A   24339.96517017  .00000199  00000-0  73613-4 0  9991
2 41727  98.4052 345.1128 0001293  83.9765 276.1572 14.42208140438043
Epoch: 2024-12-04T23:09Z
Definitive object data (Epoch: 2024-12-04T23:09:50.702Z)
Latitude-0.00004°
Longitude-76.60121°
Altitude754.068 km
Speed7.478 km/s
True Right ascension23h 00m 27s
True Declination0° 00' 00"
Sunlit
Object was in daylight at TLE epoch
Visualization TLE readout
Latitude42.04852°
Longitude111.24732°
Altitude756.811 km
Speed7.48 km/s
Apparent Right ascension13h 04m 23s
Apparent Declination4° 12' 41"
Sunlit
Object is in daylight
Visualization observer readout
Local Sidereal Time02:45:08
Azimuth33.739° NE
Elevation-40.171°
Doppler factor1
Orbital elements
Apogee altitude749.248 km
Perigee altitude747.405 km
Semi-major axis7,126.464 km
Eccentricity0.0001293
Inclination98.4052°
RAAN345.1128°
Arg. of periapsis83.9765°
True anomaly276.14247°
Mean anomaly276.1572°
Eccentric anomaly276.14983°
Mean motion3.60771 °/min
BSTAR0.000073613
Orbital period99.79 mins
Loading maneuver chart data...
Loading historical data...
Loading historical data...
Loading historical data...
Loading historical data...
Loading historical data...
Loading historical data...
Loading historical data...

GAOFEN 3 Visibility forecast

Observer location: undefined°, undefined

Span
Click to sort rows by Start time (UTC) header in descending order
Start Az.
Max El. time (UTC)
Max El. Az.
Max El.
End time (UTC)
End Az.
9 mins2024-12-05 13:03:40.303Z25.086° NE2024-12-05 13:07:40.303Z83.665° E37.74°2024-12-05 13:12:40.303Z175.963° S
4 mins2024-12-05 14:44:40.303Z320.439° NNW2024-12-05 14:46:40.303Z290.893° WNW17.311°2024-12-05 14:48:40.303Z263.696° W
8 mins2024-12-06 00:16:40.303Z148.887° SSE2024-12-06 00:19:40.303Z84.262° E41.76°2024-12-06 00:24:40.303Z353.598° N
|